TimeCDT,TemperatureF,Dew PointF,Humidity,Sea Level PressureIn,VisibilityMPH,Wind Direction,Wind SpeedMPH,Gust SpeedMPH,PrecipitationIn,Events,Conditions,WindDirDegrees,DateUTC
12:19 AM,73.4,71.6,94,29.97,10.0,SSW,4.6,-,N/A,,Scattered Clouds,200,2013-07-11 05:19:00
12:28 AM,73.4,71.6,94,29.97,10.0,SSW,5.8,-,N/A,,Mostly Cloudy,200,2013-07-11 05:28:00
12:53 AM,73.9,71.1,91,29.95,10.0,SSW,6.9,-,N/A,,Overcast,200,2013-07-11 05:53:00
1:53 AM,73.9,71.1,91,29.95,10.0,SW,4.6,-,N/A,,Overcast,220,2013-07-11 06:53:00
2:23 AM,73.4,69.8,88,29.96,9.0,Calm,Calm,-,N/A,,Partly Cloudy,0,2013-07-11 07:23:00
2:53 AM,73.0,70.0,90,29.94,7.0,Calm,Calm,-,N/A,,Partly Cloudy,0,2013-07-11 07:53:00
3:26 AM,73.4,69.8,88,29.95,2.5,Calm,Calm,-,N/A,,Mostly Cloudy,0,2013-07-11 08:26:00
3:36 AM,71.6,69.8,94,29.95,1.8,Calm,Calm,-,N/A,,Mostly Cloudy,0,2013-07-11 08:36:00
3:43 AM,71.6,69.8,94,29.95,3.0,Calm,Calm,-,N/A,,Mostly Cloudy,0,2013-07-11 08:43:00
3:51 AM,71.6,69.8,94,29.95,2.0,Calm,Calm,-,N/A,,Overcast,0,2013-07-11 08:51:00
3:53 AM,72.0,69.1,91,29.94,2.0,Calm,Calm,-,N/A,,Overcast,0,2013-07-11 08:53:00
4:04 AM,71.6,69.8,94,29.95,1.2,Calm,Calm,-,N/A,,Overcast,0,2013-07-11 09:04:00
4:11 AM,71.6,69.8,94,29.95,2.0,Calm,Calm,-,N/A,,Overcast,0,2013-07-11 09:11:00
4:20 AM,71.6,69.8,94,29.95,2.0,Calm,Calm,-,N/A,,Overcast,0,2013-07-11 09:20:00
4:30 AM,71.6,69.8,94,29.96,1.2,Calm,Calm,-,N/A,,Overcast,0,2013-07-11 09:30:00
4:36 AM,71.6,69.8,94,29.96,0.5,Calm,Calm,-,N/A,Fog,Fog,0,2013-07-11 09:36:00
4:43 AM,71.6,71.6,100,29.96,0.5,Calm,Calm,-,N/A,Fog,Fog,0,2013-07-11 09:43:00
4:53 AM,72.0,70.0,93,29.95,0.8,Calm,Calm,-,N/A,,Mist,0,2013-07-11 09:53:00
5:06 AM,73.4,69.8,88,29.96,1.5,SE,3.5,-,N/A,,Overcast,130,2013-07-11 10:06:00
5:15 AM,71.6,69.8,94,29.97,1.0,SSE,3.5,-,N/A,,Mist,150,2013-07-11 10:15:00
5:21 AM,71.6,69.8,94,29.97,0.5,SE,3.5,-,N/A,Fog,Fog,140,2013-07-11 10:21:00
5:53 AM,72.0,70.0,93,29.96,0.2,Calm,Calm,-,N/A,Fog,Fog,0,2013-07-11 10:53:00
6:53 AM,73.0,71.1,93,29.96,0.5,Calm,Calm,-,N/A,Fog,Fog,0,2013-07-11 11:53:00
7:19 AM,73.4,71.6,94,29.97,1.0,Calm,Calm,-,N/A,,Overcast,0,2013-07-11 12:19:00
7:25 AM,73.4,71.6,94,29.97,2.0,Calm,Calm,-,N/A,,Overcast,0,2013-07-11 12:25:00
7:33 AM,73.4,71.6,94,29.98,6.0,Calm,Calm,-,N/A,,Overcast,0,2013-07-11 12:33:00
7:53 AM,73.9,71.1,91,29.97,10.0,Calm,Calm,-,N/A,,Overcast,0,2013-07-11 12:53:00
8:32 AM,75.2,71.6,89,29.98,10.0,Calm,Calm,-,N/A,,Scattered Clouds,0,2013-07-11 13:32:00
8:53 AM,79.0,71.1,77,29.97,10.0,Calm,Calm,-,N/A,,Partly Cloudy,0,2013-07-11 13:53:00
9:53 AM,81.0,73.0,77,29.97,10.0,Calm,Calm,-,N/A,,Mostly Cloudy,0,2013-07-11 14:53:00
10:23 AM,82.4,73.4,74,29.99,10.0,NE,4.6,-,N/A,,Mostly Cloudy,40,2013-07-11 15:23:00
10:43 AM,84.2,73.4,70,29.99,10.0,Variable,3.5,-,N/A,,Scattered Clouds,0,2013-07-11 15:43:00
10:53 AM,84.9,73.9,69,29.97,10.0,Calm,Calm,-,N/A,,Scattered Clouds,0,2013-07-11 15:53:00
11:18 AM,82.4,71.6,70,29.98,10.0,Calm,Calm,-,N/A,,Mostly Cloudy,0,2013-07-11 16:18:00
11:42 AM,84.2,71.6,66,29.97,10.0,SE,6.9,-,N/A,,Overcast,140,2013-07-11 16:42:00
11:50 AM,84.2,71.6,66,29.97,10.0,Variable,3.5,-,N/A,,Mostly Cloudy,0,2013-07-11 16:50:00
11:53 AM,84.9,72.0,65,29.95,10.0,SSE,4.6,-,N/A,,Mostly Cloudy,160,2013-07-11 16:53:00
12:09 PM,84.2,69.8,62,29.97,10.0,Calm,Calm,-,N/A,Thunderstorm,Overcast,0,2013-07-11 17:09:00
12:53 PM,80.1,71.1,74,29.96,10.0,NNE,8.1,-,N/A,Thunderstorm,Thunderstorm,20,2013-07-11 17:53:00
1:02 PM,82.4,71.6,70,29.97,10.0,NNE,6.9,-,N/A,Thunderstorm,Thunderstorm,20,2013-07-11 18:02:00
1:44 PM,84.2,73.4,70,29.97,10.0,NNE,8.1,-,N/A,,Mostly Cloudy,30,2013-07-11 18:44:00
1:53 PM,82.9,73.9,74,29.95,10.0,NNE,5.8,-,N/A,,Mostly Cloudy,20,2013-07-11 18:53:00
2:24 PM,84.2,73.4,70,29.96,10.0,North,5.8,-,N/A,,Scattered Clouds,10,2013-07-11 19:24:00
2:33 PM,84.2,73.4,70,29.96,10.0,NNE,8.1,-,N/A,,Mostly Cloudy,20,2013-07-11 19:33:00
2:51 PM,84.2,71.6,66,29.96,10.0,NNW,6.9,16.1,N/A,,Mostly Cloudy,340,2013-07-11 19:51:00
2:53 PM,84.0,72.0,67,29.94,10.0,North,8.1,-,N/A,,Scattered Clouds,360,2013-07-11 19:53:00
3:33 PM,84.2,71.6,66,29.96,10.0,NNE,6.9,-,N/A,,Mostly Cloudy,20,2013-07-11 20:33:00
3:53 PM,84.9,70.0,61,29.94,10.0,NNW,5.8,-,N/A,,Scattered Clouds,340,2013-07-11 20:53:00
4:53 PM,84.9,66.9,55,29.94,10.0,North,10.4,-,N/A,,Partly Cloudy,350,2013-07-11 21:53:00
5:53 PM,84.9,66.0,53,29.93,10.0,North,8.1,-,N/A,,Mostly Cloudy,10,2013-07-11 22:53:00
6:53 PM,82.0,64.0,54,29.93,10.0,North,8.1,-,N/A,,Clear,10,2013-07-11 23:53:00
7:53 PM,79.0,64.0,60,29.94,10.0,North,4.6,-,N/A,,Clear,10,2013-07-12 00:53:00
8:53 PM,75.9,62.1,62,29.96,10.0,North,3.5,-,N/A,,Clear,10,2013-07-12 01:53:00
9:53 PM,73.9,61.0,64,29.97,10.0,Calm,Calm,-,N/A,,Clear,0,2013-07-12 02:53:00
10:53 PM,73.0,61.0,66,29.97,10.0,North,3.5,-,N/A,,Clear,360,2013-07-12 03:53:00
11:53 PM,71.1,61.0,70,29.98,10.0,North,4.6,-,N/A,,Clear,360,2013-07-12 04:53:00